Temp
60 60 60 60 60 60 60 60 60 60 60 60 61 61 60 60 60 78 76 71 73 70 70 83 85 86 87 85 88 86 73 71 74 74 76 85 84 96 101 97 99 101 99 100 104
59 59 59 59 59 59 59 59 59 59 60 60 60 60 60 60 69 79 70 70 70 70 81 82 80 84 81 82 84 80 72 74 84 86 84 85 87 90 92 90 92 95 98 101 103
59 59 59 59 59 59 59 59 59 60 60 60 60 60 60 63 74 75 69 69 69 72 84 83 83 83 78 82 82 80 72 81 83 87 89 84 86 93 90 88 93 92 94 97 99
59 59 59 59 59 59 58 59 59 59 60 60 59 60 60 70 65 77 70 70 71 79 82 81 81 76 75 74 82 74 81 82 84 85 86 81 86 85 90 92 99 100 100 100 97
58 58 58 58 58 58 58 58 58 59 59 59 59 60 67 72 74 81 72 75 83 82 79 78 76 77 72 77 80 77 80 83 85 85 85 85 81 82 86 94 100 101 99 98 98
58 58 57 57 58 58 57 57 57 58 58 59 61 60 70 67 83 84 83 82 83 80 78 79 76 80 75 76 76 81 82 82 84 83 84 81 81 83 86 92 94 96 97 98 98
57 57 57 57 57 57 57 57 57 57 59 60 62 68 70 72 83 86 84 83 83 79 74 80 79 74 76 72 80 78 73 78 81 82 80 83 74 76 86 90 90 92 95 96 97
57 57 57 57 57 57 57 57 57 58 60 62 62 72 69 83 86 84 85 82 84 82 78 79 79 74 72 76 73 70 72 66 77 80 82 78 66 79 86 86 86 90 92 94 96
57 56 56 56 57 57 56 56 57 61 61 62 66 71 69 74 77 82 84 77 80 81 81 79 76 70 72 65 63 66 59 65 71 81 79 75 70 79 84 85 86 88 90 93 94
57 56 56 56 56 56 56 55 62 61 65 74 75 65 74 71 77 79 83 79 74 74 73 72 70 65 67 64 53 59 62 65 65 76 79 75 74 79 83 83 83 86 90 91 93
56 56 56 56 56 55 59 74 67 65 72 68 69 68 71 77 81 76 79 75 74 69 61 69 62 58 63 66 67 65 62 62 70 78 75 74 74 78 82 80 82 86 88 90 91
56 56 56 56 56 55 62 70 67 70 59 72 72 71 74 75 65 74 79 67 66 60 65 63 57 65 67 66 63 62 59 59 67 73 72 73 73 79 82 81 81 83 87 88 90
55 56 55 55 56 59 73 70 78 75 61 66 70 70 72 73 66 68 74 70 63 60 61 57 62 67 65 63 59 60 57 58 59 67 71 69 67 73 81 84 84 85 87 89 89
55 55 55 55 56 77 72 75 78 74 56 59 64 69 72 73 64 75 76 68 63 58 61 59 65 62 60 59 61 54 64 62 59 58 53 68 54 66 74 77 81 82 84 87 89
55 55 54 53 71 73 72 78 77 69 43 61 65 78 73 67 67 68 75 70 59 59 59 55 57 58 57 59 63 57 65 61 60 56 56 59 58 65 74 72 76 81 84 87 89
55 54 54 64 74 75 78 76 70 52 40 57 64 62 64 67 66 69 69 74 71 61 62 59 67 64 62 64 63 64 59 59 59 56 46 55 57 61 68 72 77 82 85 87 89
54 54 56 74 70 79 77 69 51 46 61 56 57 62 61 60 60 62 61 60 55 46 48 55 59 65 66 58 62 59 53 41 39 42 41 57 56 60 74 78 79 81 84 87 89
53 52 60 76 79 76 71 60 40 56 55 61 59 59 56 59 58 59 58 56 53 55 47 42 42 54 59 57 54 52 49 39 30 37 43 57 50 61 74 79 81 82 84 84 84
51 69 72 76 76 74 63 46 53 54 57 54 57 54 56 58 59 58 57 56 57 57 43 41 43 56 59 62 58 54 45 51 43 43 34 45 59 68 74 75 78 81 80 80 81
62 70 73 74 75 68 58 49 56 59 58 57 48 53 49 53 52 54 54 58 55 59 60 51 41 54 58 61 60 56 60 42 47 34 31 44 48 57 66 71 76 77 78 79 81
62 64 70 75 73 62 48 55 57 61 58 53 52 50 51 50 52 52 52 58 58 58 60 56 48 49 54 48 48 54 50 51 49 46 35 39 49 66 70 72 74 78 78 78 80
64 57 71 73 56 58 54 56 48 57 60 56 57 53 49 50 48 50 50 54 61 60 51 56 46 43 48 60 60 56 52 48 41 43 48 44 45 70 74 77 78 76 77 78 81
60 64 71 67 48 52 59 57 57 55 56 54 52 54 56 49 42 50 52 59 60 56 48 50 45 37 44 47 56 50 53 50 49 43 41 40 44 70 73 74 75 75 76 76 78
61 52 64 67 63 53 53 53 52 59 56 57 55 56 52 48 51 46 48 49 54 53 52 52 46 40 36 42 38 37 46 54 50 35 46 50 46 60 69 71 74 74 76 76 77
63 57 56 50 54 51 53 54 51 51 56 55 52 52 48 42 47 47 49 50 54 55 54 48 39 45 49 52 51 52 52 54 52 53 46 52 47 49 58 67 73 74 74 75 77
54 52 57 53 52 48 51 53 51 53 53 51 48 50 48 42 44 42 46 47 40 52 50 50 39 46 45 53 54 51 55 55 55 55 54 56 55 66 68 72 71 72 73 74 76
57 57 48 48 54 47 47 47 47 48 52 55 50 47 45 50 54 57 56 56 51 45 45 42 41 40 38 49 49 45 52 55 56 58 56 51 60 68 67 68 70 72 73 74 76
MSLP
1021.23 1020.89 1020.51 1020.14 1019.79 1019.47 1019.09 1018.66 1018.24 1017.78 1017.42 1016.95 1016.46 1016.09 1015.78 1015.31 1014.43 1012.11 1011.47 1012.44 1012.15 1012.09 1011.81 1010.07 1009.17 1008.30 1007.85 1006.65 1006.29 1006.01 1004.67 1002.42 1001.26 1000.96 1000.80 1000.66 1000.07 998.75 997.94 997.66 997.30 997.60 997.82 998.06 998.14
1021.23 1020.80 1020.39 1019.99 1019.62 1019.24 1018.86 1018.50 1018.09 1017.69 1017.31 1016.75 1016.26 1015.92 1015.52 1015.11 1013.66 1010.85 1012.73 1012.49 1012.29 1011.93 1010.58 1008.78 1008.33 1007.58 1006.77 1005.85 1005.45 1004.85 1003.27 1001.89 1001.19 1000.53 1000.09 1000.28 1000.41 999.63 998.27 998.28 998.09 997.96 998.74 998.68 998.58
1021.16 1020.73 1020.29 1019.90 1019.50 1019.14 1018.77 1018.31 1017.80 1017.41 1016.99 1016.56 1016.12 1015.67 1015.25 1014.79 1011.70 1010.91 1012.65 1012.83 1012.50 1011.83 1009.78 1009.07 1008.58 1007.23 1006.16 1005.51 1004.59 1003.92 1002.00 1001.71 1001.06 1000.90 1000.43 1000.49 1000.22 999.54 998.27 997.51 997.93 997.94 998.54 998.84 998.65
1021.22 1020.75 1020.29 1019.87 1019.48 1019.10 1018.62 1018.12 1017.60 1017.15 1016.71 1016.39 1016.01 1015.48 1014.85 1013.60 1010.40 1011.05 1012.26 1012.22 1011.71 1010.96 1009.71 1008.56 1007.75 1006.86 1005.77 1004.53 1004.12 1003.18 1001.95 1001.72 1001.27 1001.06 1000.58 1000.84 1000.89 1000.06 998.93 997.84 997.55 997.44 997.75 998.44 999.16
1021.26 1020.76 1020.24 1019.68 1019.22 1018.82 1018.30 1017.85 1017.45 1017.00 1016.46 1016.06 1015.67 1015.29 1014.25 1011.57 1009.91 1011.20 1011.82 1011.31 1010.46 1009.99 1009.05 1008.38 1007.50 1006.30 1005.00 1004.27 1003.75 1002.18 1001.68 1001.30 1001.12 1001.08 1000.90 1000.75 1000.48 1000.48 999.47 998.57 997.86 997.55 997.83 998.24 998.80
1021.15 1020.62 1020.10 1019.61 1019.11 1018.65 1018.11 1017.62 1017.21 1016.82 1016.20 1015.71 1015.29 1015.11 1013.29 1010.51 1010.37 1010.60 1010.64 1010.46 1009.81 1009.62 1009.12 1008.58 1007.73 1006.95 1005.47 1004.19 1003.19 1002.18 1001.38 1000.89 1000.86 1000.73 1000.69 1000.34 999.94 1000.56 999.25 999.15 998.23 997.80 997.61 998.09 998.49
1021.06 1020.54 1020.01 1019.45 1018.88 1018.37 1017.85 1017.31 1016.89 1016.56 1016.00 1015.63 1015.30 1014.60 1012.06 1010.06 1010.47 1010.19 1009.95 1009.63 1009.58 1009.65 1009.26 1008.69 1008.32 1007.90 1006.27 1004.78 1003.93 1002.95 1001.82 1000.82 1000.07 999.86 999.88 1000.40 999.77 999.13 999.12 999.04 998.28 997.86 997.66 998.06 998.00
1020.92 1020.38 1019.84 1019.24 1018.61 1018.01 1017.49 1016.98 1016.43 1015.88 1015.42 1015.14 1015.11 1013.61 1010.45 1010.14 1010.14 1009.50 1009.53 1009.29 1009.05 1009.22 1009.41 1009.29 1008.98 1008.09 1007.02 1006.01 1004.70 1003.54 1001.96 1000.03 998.90 999.46 998.80 1000.10 998.33 997.63 998.53 998.41 998.19 997.76 997.35 997.38 997.39
1020.67 1020.06 1019.47 1018.85 1018.14 1017.46 1016.93 1016.37 1015.77 1015.21 1014.98 1014.94 1014.42 1012.42 1009.39 1010.30 1009.65 1009.73 1009.61 1009.16 1008.96 1008.82 1008.54 1008.81 1008.91 1007.75 1006.70 1005.57 1004.47 1003.18 1001.00 999.23 998.17 998.36 998.62 999.02 996.82 997.18 998.00 997.49 996.97 996.98 996.92 996.69 996.63
1020.55 1019.84 1019.28 1018.66 1017.96 1017.19 1016.45 1015.72 1015.29 1015.15 1014.70 1013.66 1012.59 1011.86 1009.81 1009.33 1009.72 1009.80 1009.36 1009.36 1009.02 1008.64 1008.07 1007.80 1007.51 1006.54 1005.66 1004.80 1002.68 1001.52 1000.75 999.62 998.13 997.50 997.46 997.59 996.18 996.57 996.90 997.11 996.82 996.15 995.73 995.71 995.72
1020.43 1019.70 1018.98 1018.37 1017.79 1017.03 1016.03 1013.91 1014.38 1013.65 1012.30 1011.25 1010.49 1010.20 1009.70 1009.74 1009.65 1009.23 1008.91 1009.03 1008.78 1008.64 1007.47 1006.66 1006.18 1005.11 1004.65 1003.99 1002.99 1002.23 1001.34 999.45 997.87 997.33 997.29 995.92 995.17 994.76 995.65 996.39 996.02 995.31 995.24 995.11 995.25
1020.22 1019.34 1018.65 1017.98 1017.41 1016.69 1015.98 1013.35 1013.67 1013.58 1011.97 1010.52 1010.19 1010.07 1010.03 1009.98 1009.61 1008.58 1008.91 1008.80 1008.23 1007.65 1007.14 1006.39 1004.96 1004.91 1004.75 1004.27 1003.83 1002.84 1001.88 1000.15 999.34 998.24 997.38 995.77 994.42 993.58 994.24 994.56 995.34 995.07 994.28 994.63 994.85
1019.90 1019.02 1018.16 1017.53 1017.06 1016.25 1014.02 1013.80 1013.52 1013.30 1011.72 1009.63 1009.61 1009.36 1009.20 1009.63 1009.02 1008.55 1008.68 1008.36 1008.11 1007.40 1006.68 1005.54 1004.77 1004.62 1004.14 1003.51 1003.25 1002.52 1002.00 1001.12 999.99 999.27 998.38 996.51 994.34 993.21 992.98 993.38 994.05 994.38 994.26 994.15 994.40
1019.45 1018.62 1017.88 1017.12 1016.97 1013.89 1013.24 1013.89 1013.44 1013.50 1010.85 1009.33 1009.01 1008.68 1009.04 1008.66 1008.01 1008.37 1008.33 1008.69 1008.12 1007.19 1006.38 1005.49 1004.91 1004.32 1003.85 1003.30 1003.15 1002.01 1002.22 1001.85 1000.97 1000.15 998.09 996.64 994.03 993.29 992.82 992.47 992.73 993.38 993.68 993.64 993.81
1019.15 1018.28 1017.62 1017.24 1015.20 1013.24 1014.04 1013.74 1013.63 1013.36 1009.63 1009.05 1008.26 1008.83 1008.70 1008.29 1007.95 1007.46 1008.16 1007.76 1007.12 1006.82 1006.60 1005.57 1004.85 1003.84 1003.04 1002.74 1002.68 1001.89 1002.04 1001.77 1001.33 1000.55 999.30 996.83 994.62 992.34 992.45 991.65 991.85 992.27 992.35 992.45 993.05
1018.86 1018.05 1017.36 1016.20 1014.72 1014.11 1013.91 1013.93 1013.62 1011.52 1008.64 1008.24 1008.37 1008.15 1007.79 1007.39 1007.20 1007.09 1007.10 1006.86 1006.24 1006.21 1006.14 1005.42 1004.63 1003.77 1002.93 1002.84 1003.10 1002.92 1002.59 1001.75 1001.25 1000.38 998.39 996.81 994.81 992.13 991.43 990.98 990.81 990.78 991.26 991.68 992.22
1018.42 1017.84 1017.31 1015.23 1013.86 1013.97 1013.90 1013.17 1011.53 1009.12 1008.75 1008.11 1008.14 1008.14 1007.85 1006.95 1007.13 1006.92 1006.83 1006.07 1005.64 1006.50 1005.89 1005.51 1003.67 1002.98 1002.77 1002.89 1003.13 1003.32 1002.49 1001.56 1000.63 999.08 997.60 997.39 995.04 992.73 990.83 990.42 990.46 990.22 990.83 991.23 991.79
1017.89 1017.52 1016.06 1014.64 1014.25 1014.24 1013.65 1012.08 1010.43 1008.53 1008.71 1009.12 1008.81 1008.29 1007.16 1007.45 1007.10 1007.03 1006.39 1005.61 1007.11 1007.02 1006.96 1006.15 1004.72 1004.71 1004.35 1003.79 1003.11 1002.63 1003.32 1002.21 1001.33 999.43 998.59 997.02 993.59 992.39 991.80 991.19 991.36 991.15 991.05 991.38 992.25
1017.14 1015.76 1014.58 1014.16 1014.56 1014.27 1013.14 1011.05 1009.12 1009.65 1010.04 1009.89 1009.17 1007.62 1006.92 1006.92 1006.92 1006.63 1006.11 1006.00 1006.64 1007.09 1007.53 1006.69 1005.84 1005.73 1004.71 1003.59 1004.06 1002.40 1002.52 1003.32 1002.14 1001.61 1000.32 997.23 993.51 992.92 991.80 991.35 991.20 991.21 992.21 992.33 992.81
1017.36 1014.68 1013.33 1014.36 1014.44 1014.06 1012.40 1010.77 1010.15 1010.60 1011.00 1010.63 1009.69 1009.04 1008.27 1008.02 1007.85 1007.15 1006.77 1006.57 1006.76 1007.27 1007.39 1007.02 1005.84 1005.54 1004.33 1004.20 1003.53 1002.91 1002.13 1003.04 1001.38 1000.49 999.45 996.53 993.43 990.40 990.13 990.20 990.77 991.41 992.06 992.75 993.11
1016.98 1014.09 1014.23 1014.39 1014.15 1013.20 1012.07 1010.56 1010.85 1011.06 1011.76 1011.26 1010.38 1010.08 1009.66 1009.17 1008.78 1007.84 1007.26 1006.86 1007.31 1007.09 1007.24 1007.03 1006.64 1005.02 1004.87 1004.22 1003.16 1002.32 1001.91 1002.53 1002.94 1001.22 999.86 996.59 992.94 990.81 989.25 990.37 990.59 991.05 991.95 993.02 993.06
1016.08 1013.68 1014.35 1014.32 1013.46 1012.96 1011.69 1011.77 1012.24 1011.44 1011.50 1011.58 1011.12 1010.92 1010.67 1010.32 1009.70 1008.77 1007.75 1007.49 1008.01 1007.81 1007.76 1007.40 1007.59 1005.69 1003.94 1002.34 1003.17 1002.86 1002.40 1002.80 1002.80 1000.63 999.50 998.31 994.52 990.73 989.10 988.43 990.41 991.85 992.82 993.49 993.56
1016.10 1014.30 1014.36 1014.56 1013.28 1012.61 1011.83 1011.86 1011.83 1011.80 1011.61 1011.54 1011.27 1011.27 1011.19 1010.85 1010.52 1009.34 1008.74 1008.48 1008.61 1008.64 1008.89 1009.17 1007.63 1006.24 1003.68 1003.45 1003.04 1003.05 1002.67 1002.53 1002.88 1003.25 1000.22 998.33 996.25 991.97 990.68 991.06 991.97 992.81 993.63 994.01 994.07
1016.65 1014.78 1013.81 1014.12 1014.11 1013.81 1012.73 1012.01 1011.86 1011.85 1011.95 1011.77 1011.59 1011.51 1011.19 1010.90 1010.63 1009.99 1009.35 1010.07 1010.00 1009.91 1009.85 1009.68 1008.48 1007.38 1005.21 1003.26 1005.09 1004.84 1003.13 1001.83 1001.86 1001.95 999.29 997.28 997.45 994.25 991.84 991.89 992.60 993.24 993.67 994.21 994.01
1016.98 1015.71 1016.23 1014.71 1014.35 1014.75 1014.06 1013.12 1012.45 1011.81 1012.19 1012.44 1011.90 1011.58 1011.79 1011.43 1010.56 1009.90 1009.59 1009.59 1009.43 1009.07 1008.99 1009.32 1008.27 1007.03 1005.39 1003.99 1003.25 1002.22 1001.46 1000.92 1000.18 999.67 998.39 996.73 997.52 997.25 995.45 993.72 992.90 993.70 994.35 994.13 993.68
1018.30 1018.03 1017.14 1016.31 1015.74 1015.56 1014.17 1012.91 1012.80 1012.60 1012.64 1012.29 1012.09 1012.04 1012.29 1011.76 1011.24 1010.08 1009.73 1009.33 1009.83 1009.10 1008.90 1009.04 1008.17 1006.99 1005.08 1003.64 1002.34 1001.35 1000.61 1000.30 999.89 999.27 997.76 997.37 996.19 995.97 995.92 995.00 994.30 994.22 994.26 993.96 993.66
1020.34 1020.03 1019.79 1017.34 1015.28 1015.34 1014.91 1014.60 1014.58 1014.88 1013.59 1012.55 1012.65 1012.34 1011.85 1011.13 1010.48 1009.37 1008.75 1008.48 1008.88 1009.49 1009.47 1009.63 1008.69 1007.44 1005.42 1003.70 1002.53 1000.91 999.97 999.21 999.13 998.89 998.64 996.50 995.88 995.50 994.96 994.62 994.37 994.25 994.09 993.93 993.89
Wind_Speed
16 16 16 16 16 16 16 16 16 15 15 16 16 16 17 18 21 21 8 8 10 13 16 14 13 13 17 20 21 17 17 19 21 21 19 17 20 20 16 16 10 8 13 6 8
17 17 17 17 17 17 17 17 16 15 16 16 17 17 16 16 18 5 9 9 12 16 13 10 15 15 16 18 20 21 18 26 20 17 13 14 18 22 21 10 18 10 3 4 8
18 18 18 18 18 18 18 17 17 16 16 17 17 18 17 16 12 9 6 3 10 16 15 10 14 18 21 20 23 25 27 24 18 20 17 16 19 19 22 18 20 15 14 8 6
18 18 18 18 18 18 18 18 18 18 18 17 16 16 16 14 3 11 3 7 12 14 12 12 13 18 24 26 25 27 31 28 27 26 18 18 17 23 25 21 19 19 15 18 9
17 18 19 19 19 19 19 19 18 18 19 17 16 14 13 9 6 10 6 10 12 9 8 11 14 16 24 24 25 32 30 29 27 23 24 20 23 23 25 25 23 20 13 12 13
18 18 19 19 19 18 19 18 17 17 18 17 15 12 12 11 4 2 6 8 10 9 9 9 11 15 20 24 26 27 29 32 27 27 27 25 28 22 26 25 26 24 23 19 19
18 18 19 19 19 19 19 18 17 17 16 12 11 10 11 5 3 6 7 8 9 7 10 11 8 13 13 18 23 26 31 30 26 31 32 24 25 33 28 26 26 27 22 21 22
18 17 19 20 19 19 19 19 20 17 11 9 8 13 8 5 6 6 8 8 6 5 8 11 12 17 20 20 27 24 23 28 33 31 29 26 34 39 28 27 28 28 23 24 25
19 19 21 22 21 21 21 21 21 6 5 7 11 10 3 7 2 10 12 12 10 11 9 7 14 17 17 17 19 21 25 30 32 32 31 28 38 35 33 28 28 28 27 25 24
21 21 20 21 22 22 21 23 5 8 9 9 7 8 5 5 8 12 7 8 10 12 14 15 15 17 17 15 20 23 28 30 33 28 30 32 37 30 31 28 29 26 25 24 25
23 23 22 21 20 20 18 6 8 9 11 12 11 10 6 6 9 7 4 8 8 11 13 11 14 16 19 20 23 24 28 35 31 27 31 30 36 36 30 27 30 27 26 22 20
24 24 23 20 18 19 12 6 6 8 11 13 11 10 7 5 9 8 2 10 10 15 16 17 20 19 20 20 24 26 27 32 31 34 28 28 35 33 32 28 28 30 22 22 21
23 23 23 19 16 10 5 7 7 8 9 1 3 8 7 6 14 13 7 10 14 17 18 20 22 22 23 21 24 25 25 28 31 27 28 33 30 32 31 30 29 30 29 25 23
24 23 20 18 9 4 2 4 8 6 8 11 7 4 7 8 18 6 6 8 15 19 20 16 17 13 15 22 22 27 22 25 26 26 23 33 21 31 30 30 26 27 29 28 28
24 23 18 8 11 4 8 8 9 6 7 5 5 7 7 12 8 4 6 16 14 19 17 18 23 22 19 19 20 24 23 25 27 26 30 33 24 19 25 29 28 28 27 26 20
24 22 13 7 7 6 7 7 6 9 1 4 2 6 11 12 6 7 11 14 20 14 16 21 17 23 22 18 19 17 25 29 28 22 25 30 29 23 22 25 27 29 28 26 23
25 20 8 8 6 7 7 7 8 8 6 3 7 11 13 13 10 6 14 14 9 10 16 21 23 12 17 17 19 20 21 15 18 20 20 25 30 22 14 15 10 15 18 18 14
27 19 8 6 6 6 8 10 6 7 9 10 10 16 14 6 7 8 15 14 11 8 11 11 16 18 8 17 20 14 19 11 19 15 20 27 28 26 28 18 10 3 6 4 7
30 7 8 4 5 6 10 6 11 11 8 10 14 9 9 4 10 13 12 11 7 7 7 12 10 13 20 10 19 24 11 21 27 20 16 16 32 29 35 27 23 15 9 7 2
9 6 1 4 4 7 9 10 8 4 8 9 13 5 13 15 13 11 12 6 5 5 11 17 19 16 11 11 18 22 17 11 11 19 19 17 22 22 14 27 15 15 14 7 5
6 6 7 5 5 8 5 8 8 5 6 7 12 16 14 16 14 16 15 15 8 10 12 18 16 17 13 6 16 16 15 12 18 13 11 15 14 18 24 21 18 14 13 4 3
7 5 5 5 7 3 7 7 2 8 5 8 13 10 10 12 15 18 17 12 10 12 17 16 8 14 22 12 18 14 17 1 9 14 15 16 16 26 16 12 23 15 9 5 7
7 5 5 4 4 6 7 10 5 8 7 6 8 11 12 15 10 12 17 15 14 15 5 8 7 11 17 6 8 4 15 9 8 12 17 11 6 14 21 19 14 13 9 4 10
6 5 0 1 2 8 11 9 6 3 8 9 10 15 13 15 13 11 19 9 12 16 14 11 14 16 17 17 7 10 18 12 9 6 15 17 9 16 11 19 13 5 5 4 10
4 3 4 5 5 11 12 13 11 9 2 6 8 9 10 11 19 21 13 19 19 20 15 9 12 17 21 20 19 16 13 16 18 17 19 21 14 20 26 20 11 10 11 12 12
5 6 7 11 5 8 10 7 9 8 13 15 14 13 14 16 17 24 21 19 7 13 5 6 11 14 19 20 19 16 18 17 18 20 24 23 22 18 17 20 17 14 15 12 10
4 1 3 8 7 3 6 8 12 12 11 7 9 14 17 19 18 22 23 21 14 13 15 10 7 8 13 15 12 14 13 19 18 18 20 22 20 20 17 15 13 13 14 12 9
Wind_Direction
346 343 341 339 337 333 332 330 326 323 319 314 314 316 316 316 301 266 260 32 352 326 308 268 265 254 229 238 233 234 252 252 246 237 252 277 292 282 248 245 258 234 244 12 109
342 340 339 338 336 335 334 330 324 319 313 311 313 313 313 317 299 267 69 22 339 319 286 261 247 229 230 233 232 226 238 244 254 257 271 229 254 256 259 223 253 195 236 206 184
340 339 337 336 334 333 330 327 323 321 313 311 310 309 308 307 264 94 101 309 298 296 297 278 271 258 240 237 230 229 240 249 254 259 265 257 263 268 265 222 220 221 173 187 162
339 336 334 333 331 330 327 326 324 320 314 310 306 304 305 283 345 93 147 274 278 278 275 271 251 241 240 238 240 247 244 246 254 270 267 252 271 270 273 257 249 216 204 193 186
339 338 336 333 331 330 326 325 323 320 313 308 304 305 293 234 63 119 236 238 269 316 288 279 273 258 246 247 246 241 247 251 253 255 263 258 247 255 258 264 263 250 213 231 215
336 336 336 332 329 327 322 319 318 317 310 303 302 303 260 258 41 319 298 286 272 313 319 282 282 281 286 269 250 255 252 253 250 252 254 252 249 251 248 258 259 254 250 234 240
332 333 333 329 326 323 319 315 313 310 297 278 280 267 276 39 333 317 285 311 297 299 290 303 315 275 282 262 254 263 266 265 256 243 245 244 257 248 248 252 249 247 244 247 242
333 332 333 330 324 320 316 312 307 300 275 261 235 260 287 98 332 272 336 315 318 259 272 284 282 280 270 267 274 281 272 248 243 245 242 227 248 249 247 239 244 252 247 238 233
334 331 331 329 326 321 317 310 306 268 214 201 226 240 183 136 287 343 332 320 309 289 280 271 270 269 271 253 255 245 251 246 248 236 239 238 239 246 251 252 237 236 244 243 239
338 333 329 326 322 316 313 299 311 182 208 217 258 246 234 353 343 311 294 293 315 311 290 240 250 253 245 240 250 254 244 246 256 255 227 232 243 241 247 247 249 260 235 235 234
339 331 327 323 317 309 312 212 206 196 217 295 312 289 283 328 313 309 278 303 251 263 268 278 267 255 262 272 267 269 271 275 266 255 249 256 233 243 234 240 254 236 240 237 235
337 334 327 321 312 303 290 356 40 339 296 272 251 260 279 297 295 304 110 283 299 288 295 275 260 258 262 267 269 272 274 269 268 270 277 262 253 244 239 229 238 251 240 237 238
334 334 328 320 316 283 320 32 334 331 264 86 219 225 233 213 267 293 270 275 284 288 284 281 290 291 281 267 250 252 264 270 271 269 259 264 262 254 245 236 227 241 249 246 238
332 335 331 321 289 352 128 352 313 337 268 131 193 181 220 253 270 222 283 296 289 287 295 300 291 274 284 269 259 266 263 270 271 269 257 247 251 242 244 244 229 234 241 241 242
334 334 330 300 319 322 359 319 333 236 260 116 143 62 255 268 292 245 196 250 273 289 297 290 292 290 277 267 263 269 271 261 262 254 259 253 251 246 240 238 236 238 239 233 235
335 334 325 210 238 18 310 330 247 232 62 167 257 251 301 304 280 281 273 275 271 268 290 289 291 282 267 274 276 287 282 262 251 245 242 243 250 238 229 239 235 222 225 230 232
332 330 280 307 352 344 317 246 247 279 118 90 331 314 308 289 309 317 313 301 304 323 312 319 291 318 249 254 263 255 259 261 243 228 241 251 239 247 221 235 288 245 233 226 233
325 319 192 291 321 324 280 253 288 61 1 2 318 297 268 347 315 295 293 306 116 298 309 331 310 354 356 284 272 233 297 240 251 221 235 232 233 227 249 251 133 307 304 141 203
314 208 234 123 315 295 271 241 355 4 358 329 306 303 320 302 320 310 315 317 348 321 308 318 308 282 289 270 272 266 208 240 265 270 296 291 223 229 225 236 245 237 191 160 251
310 265 150 5 293 276 261 279 302 4 314 307 298 334 319 322 318 313 319 330 278 274 296 298 294 295 321 303 253 264 272 269 287 264 259 267 270 211 190 202 194 189 185 149 228
260 260 81 322 273 244 274 312 331 358 323 321 324 309 309 313 306 300 297 289 327 318 320 296 300 292 231 238 285 245 257 241 251 268 296 265 252 239 198 195 199 194 116 118 328
288 281 59 324 256 250 273 8 22 280 299 286 282 301 292 312 306 303 296 308 313 316 311 320 286 291 285 249 236 251 255 208 249 255 245 253 299 308 132 130 184 115 98 70 339
312 308 98 300 281 308 312 301 254 287 303 294 281 294 296 292 300 292 308 316 320 317 324 341 292 305 291 314 145 229 298 214 250 273 268 282 276 290 117 120 124 126 110 11 343
306 331 79 350 307 319 330 306 295 233 294 301 305 283 285 290 290 277 290 319 324 298 306 310 273 261 279 293 150 265 294 285 280 256 281 260 207 259 159 140 141 126 42 348 317
354 27 21 310 317 328 306 295 286 301 271 278 291 311 323 302 311 296 312 297 300 290 275 235 264 269 273 276 274 268 262 275 274 259 269 285 321 297 312 321 357 7 319 298 305
344 336 359 289 251 296 295 293 311 332 311 304 281 298 304 289 291 292 294 300 279 303 304 264 274 285 284 283 276 269 255 253 261 269 268 269 268 261 242 274 302 304 287 287 299
33 136 322 304 266 218 280 331 322 323 293 291 303 286 288 289 294 293 292 282 258 249 280 283 273 291 278 305 298 271 284 245 242 241 253 277 283 291 276 271 284 293 299 282 285